Regional Weather Roundup
Issued by NWS New Orleans/Baton Rouge, LA

Home | Current Version | Previous Version | Text Only | Print | Product List | Glossary On
Versions: 1 2 3 4 5 6 7 8 9 10 11 12 13 14 15 16 17 18 19 20 21 22 23 24 25 26 27 28 29 30 31 32 33 34 35 36 37 38 39 40 41 42 43 44 45 46 47 48 49 50
266
ASUS44 KLIX 211505
RWRLIX
NEW ORLEANS REGIONAL WEATHER ROUNDUP
NATIONAL WEATHER SERVICE NEW ORLEANS LA
900 AM CST FRI NOV 21 2014

NOTE: "FAIR" INDICATES FEW OR NO CLOUDS BELOW 12,000 FEET WITH NO
      SIGNIFICANT WEATHER AND/OR OBSTRUCTIONS TO VISIBILITY.
      SKY/WX - SKY CONDITION AND SIGNIFICANT WEATHER.
      TMP - AIR TEMPERATURE.     DP    - DEWPOINT TEMPERATURE.
      RH  - RELATIVE HUMIDITY.   PRES  - PRESSURE.
      HI  - HEAT INDEX.          WCI   - WIND CHILL INDEX.

*  THESE STATIONS ARE NOT NWS OR FAA STATIONS AND ARE NOT UNDER
   NWS QUALITY CONTROL.

LAZ038-040-048-061>063-065>067-069-211600-
SOUTHEAST LOUISIANA

CITY           SKY/WX    TMP DP  RH WIND       PRES   REMARKS
N.O. AUDUBON   NOT AVBL
N.O. INTL ARPT MOSUNNY   64  47  53 SE8       30.31R
N.O. LAKEFRONT SUNNY     64  47  53 SE10      30.32R
N.O. DOWNTOWN*   N/A     63  45  51 SE5       30.31S
SLIDELL        SUNNY     59  48  67 E6        30.31S
BATON ROUGE    PTSUNNY   59  49  69 E10       30.29S
BOOTHVILLE     SUNNY     63  52  67 E7        30.31R
BELLE CHASSE   MOSUNNY   64  47  53 E9        30.30R
BOGALUSA*        N/A     55  47  73 E5        30.34S
NEW ROADS*     CLOUDY    59  50  70 E7        30.29S
GONZALES*        N/A     60  51  71 SE5       30.30R
HAMMOND*       MOSUNNY   59  46  63 E5        30.32S
HOUMA*         SUNNY     63  52  67 E8        30.30R
PORT FOURCHON* SUNNY     66  52  59 E12G20    30.31S

$$

MSZ070-080>082-211600-
SOUTHERN MISSISSIPPI

CITY           SKY/WX    TMP DP  RH WIND       PRES   REMARKS
MCCOMB         SUNNY     56  47  71 SE5       30.32R
GULFPORT       SUNNY     58  49  72 E5        30.33R
BILOXI         NOT AVBL
PASCAGOULA     SUNNY     59  50  72 NE3       30.34R
STENNIS ARPT*  SUNNY     57  48  72 CALM      30.33R

$$

COASTAL OBSERVATIONS
LAKE AND NEARSHORE STATIONS

STATION/POSITION TIME  TEMP    WIND        PRES    WAVE
                       AIR SEA DIR/SP/G            HT/PER
                 (UTC) (F)     (DEG/KT/KT) (MB)    (FT/S)
PASCAGOULA       1500   60      60/  9/ 12 1026.6
WAVELAND YACHT   1500   54      60/  3/  4 1026.2
GRAND ISLE       1500   64 58  100/ 10/ 14 1026.1
SOUTHWEST PASS   1500   65 72              1025.8
NEW CANAL        1500   62 52  120/  2/  8 1026.6
SHELL BEACH      1500   56 49   50/  8/  8 1026.2

OFFSHORE STATIONS

STATION/POSITION TIME  TEMP    WIND        PRES    WAVE
                       AIR SEA DIR/SP/G            HT/PER
                 (UTC) (F)     (DEG/KT/KT) (MB)    (FT/S)
64 S DAUPHIN ISL 1443   65 73   80/ 16/ 17 1026.9    3/ 6

$$




USA.gov is the U.S. government's official web portal to all federal, state and local government web resources and services.